Retour au catalogue

COSMOS 1851

ActifMilitaireHEO
NORAD 18103·PAYLOAD·🇷🇺 Russia

Lancé Jun 12, 1987 depuis Plesetsk Cosmodrome

Loading…

Prochains Passages (prochaines 24 heures)

TLE

FraisSource: Space-Track

Époque: Sep 13, 2026, 14:45 UTC

1 18103U 87050A   26256.61464288  .00000014  00000-0  00000+0 0  9997
2 18103  70.9885 184.5078 4699421  36.8089 105.3431  2.00529384287562

Suivez COSMOS 1851 en temps réel avec AllMySat

Download on the App Store